STARLINK-35518, 66198

Orbit data source: Space-Track

STARLINK-35518, 66198 is a payload satellite owned by SpaceX/Seattle (US) in LEO that was launched on Sun, 26 Oct 2025 UTC via an FALCON 9 launch vehicle from the Air Force Eastern Test Range (AFETR). Payload-class satellites include a variety of spacecraft equipped with specific instruments for various scientific and technological missions. These include communications satellites like Starlink; space stations such as the ISS; scientific satellites like the Hubble; Earth observation satellites from companies like Planet Labs, Umbra, and HawkEye 360; GPS; miniature CubeSats for education and research; and military/defense satellites.

Loading next visibility...
Identifier
66198, 2025-243W
Orbit
LEO
Country
Flag of USUS
Related business
Manufacturer
SpaceX/Seattle
Mission
Operational Commercial Communications
Bus & Motor
STARLINK V2MO, Unknown motor
Mass
575 kg wet, ~530 kg dry
Launch date (UTC)
2025-10-26 (4 months ago)
Launch vehicle
FALCON 9
Launch site
Air Force Eastern Test Range (AFETR)
Object type
Payload
Rocket body
Debris
Shape & HBR
Box + 2 Pan, 17.7 m
Radar Cross Section
36.964 m²

Expand to show TLE details & history
Last TLE update: 10 hours ago

TLE from 10 hours ago
0 STARLINK-35518
1 66198U 25243W   26061.79850212  .00027957  00000-0  95190-3 0  9992
2 66198  53.1575 277.6214 0001178  88.6101 271.5035 15.30219568 19595
Epoch: 2026-03-02T19:09Z
TLE epoch observation values (Epoch: 2026-03-02T19:09:50.583Z)
Latitude
0.00002°
Longitude
-170.42609°
Altitude
476.035 km
Speed
7.629 km/s
True Right ascension
18h 30m 29s
True Declination
0° 00' 00"
Sunlit
Object was in daylight at epoch
Visualization orbit readout
Latitude
Unknown
Longitude
Unknown
Altitude
Unknown
Speed
Unknown
Apparent Right ascension
Unknown
Apparent Declination
Unknown
Sunlit
N/A
Visualization observer readout
Local Sidereal Time
08:54:46
Azimuth
Unknown
Elevation
Unknown
Doppler factor
Unknown
Orbital elements
Apogee altitude
476.221 km
Perigee altitude
474.606 km
Semi-major axis
6,853.55 km
Eccentricity
0.00012
Inclination
53.1575°
RAAN
277.6214°
Arg. of periapsis
88.6101°
True anomaly
271.49001°
Mean anomaly
271.5035°
Eccentric anomaly
271.49675°
Mean motion
3.82534 °/min
Orbital period
94.11 mins
BSTAR
0.0009519
Loading maneuver chart data...
Computing Atmospheric mass density...
Loading historical data...
Loading historical data...
Loading historical data...
Loading historical data...
Loading historical data...
Loading historical data...
Loading historical data...

Documentation

Showing up to 5 results
|